This demonstration page uses our WeatherBlox Daily Observations layout. Learn more.

Left ArrowRight Arrow

39.92423, -83.80882

Hourly Observations for January 22, 2019

Temp ( °F °C ) Dew Point ( °F °C ) Humidity (%) Winds ( mph kmh ) Pressure ( in mb ) Visibility ( mi km ) Precip ( " mm )
12:56 am 00:56 Clear 7 -13.9 N/A 73 73 ESE 12 19 30.58 1036 10 16 N/A
1:56 am 01:56 Cloudy 9 -12.8 2 -16.7 73 73 ESE 14 22 30.55 1035 10 16 N/A
2:56 am 02:56 Cloudy 10 -12.2 3 -16.1 73 73 ESE 15 24 30.55 1034 10 16 N/A
3:56 am 03:56 Mostly Cloudy 10 -12.2 3 -16.1 73 73 ESE 14 22 30.54 1034 10 16 N/A
5:56 am 05:56 Cloudy 11 -11.7 4 -15.6 73 73 ESE 15 24 30.51 1033 10 16 N/A
6:56 am 06:56 Mostly Cloudy 11 -11.7 4 -15.6 73 73 ESE 15 24 30.50 1033 10 16 N/A
7:56 am 07:56 Sunny 11 -11.7 5 -15 77 77 SE 15 24 30.50 1033 10 16 N/A
8:56 am 08:56 Sunny 12 -11.1 6 -14.4 77 77 SE 14 22 30.49 1033 10 16 N/A
9:56 am 09:56 Sunny 14 -10 6 -14.4 71 71 SE 16 26 30.48 1032 10 16 N/A
10:56 am 10:56 Sunny 16 -8.9 8 -13.3 71 71 SE 13 20 30.48 1032 10 16 N/A
11:56 am 11:56 Sunny 19 -7.2 11 -11.7 71 71 SE 13 20 30.44 1031 10 16 N/A
12:56 pm 12:56 Sunny 21 -6.1 12 -11.1 68 68 SSE 12 19 30.40 1029 10 16 N/A
1:56 pm 13:56 Sunny 23 -5 15 -9.4 72 72 SSE 13 20 30.35 1028 10 16 N/A
2:56 pm 14:56 Sunny 27 -2.8 19 -7.2 72 72 SE 13 20 30.31 1027 10 16 N/A
3:56 pm 15:56 Sunny 30 -1.1 20 -6.7 66 66 SSE 15 24 30.27 1025 10 16 N/A
4:56 pm 16:56 Sunny 32 undefined 19 -7.2 59 59 S 7 11 30.25 1024 10 16 N/A
5:56 pm 17:56 Mostly Cloudy 33 0.6 21 -6.1 61 61 SSE 8 13 30.24 1024 10 16 N/A
6:56 pm 18:56 Cloudy 36 2.2 22 -5.6 57 57 SSE 13 20 30.22 1024 10 16 N/A
7:56 pm 19:56 Cloudy 35 1.7 23 -5 61 61 S 12 19 30.22 1023 10 16 N/A
8:56 pm 20:56 Mostly Cloudy 37 2.8 23 -5 57 57 S 9 15 30.19 1022 10 16 N/A
9:56 pm 21:56 Mostly Clear 40 4.4 28 -2.2 63 63 S 14 22 30.14 1021 10 16 N/A
10:56 pm 22:56 Mostly Clear 41 5 28 -2.2 60 60 S 17 28 30.10 1019 10 16 N/A
11:56 pm 23:56 Cloudy 42 5.6 29 -1.7 60 60 S 14 22 30.08 1019 10 16 N/A

Powered by AerisWeather